[[{"header":{"parameterUnit":"m.s-1","parameterCategory":1,"la1":30.2991,"la2":30.254,"lo1":-89.0895,"lo2":-89.0444,"dy":0.0017,"dx":0.0017,"nx":28,"ny":28,"refTime":"2024-04-22T21:00:00:Z","depth":0,"parameterNumber":2,"parameterNumberName":"U-component_of_WINDS"},"data":[0,0,0,0,0,0,0,0,0,0,0,0,0,0,0,0,0,0,0,0,0,0,0,0,0,0,0,0,0,0,0,0,0,0,0,0,0,0,0,0,0,0,0,0,0,0,0,0,0,0,0,0,0,0,0,0,0,0,0.4212,0.4212,0,0.421,0.421,0.421,0.4211,0.4211,0.4211,0.4211,0.4207,0.4207,0.4207,0,0,0,0,0,0,0,0,0,0,0,0,0,0.4214,0.4214,0.4212,0.4212,0.4212,0.421,0.421,0.421,0.4211,0.4211,0.4211,0.4211,0.4207,0.4207,0.4207,0,0,0,0,0,0,0,0,0,0,0,0,0,0.4213,0.4214,0.4212,0.4212,0.4212,0.421,0.421,0.421,0.4211,0.4211,0.4211,0.4211,0.4207,0.4207,0.4207,0.4204,0,0,0.4206,0.4206,0,0,0,0,0,0,0,0,0.4213,0.4213,0.4212,0.4212,0.4212,0.4211,0.421,0.4208,0.4211,0.4211,0.4211,0.4211,0.4208,0.4208,0.4207,0.4204,0.4204,0.4206,0.4206,0.4206,0.4206,0,0,0,0,0,0,0,0.4213,0.4213,0.4211,0.4212,0.4212,0.4212,0.4211,0.4209,0.4209,0.4211,0.4211,0.4211,0.4208,0.4208,0.4207,0.4204,0.4206,0.4206,0.4206,0.4206,0.4197,0.4197,0,0,0,0,0,0,0.4213,0.4213,0.4211,0.4211,0.4213,0.4211,0.4211,0.4211,0.4209,0.4209,0.4211,0.4211,0.4208,0.4208,0.4207,0.4203,0.4206,0.4206,0.4206,0.4197,0.4197,0.4197,0,0,0,0,0,0,0.4214,0.4213,0.4211,0.4212,0.4212,0.4211,0.4211,0.4211,0.421,0.4209,0.4209,0.421,0.4208,0.4208,0.4205,0.4203,0.4206,0.4206,0.4197,0.4197,0.4197,0.4195,0,0,0,0,0,0,0.4214,0.4213,0.4213,0.4212,0.4212,0.421,0.4211,0.4211,0.421,0.421,0.4209,0.4209,0.4208,0.4205,0.4205,0.4203,0.4206,0.4197,0.4197,0.4197,0.4195,0.4195,0.4195,0,0,0,0,0,0.4214,0.4213,0.4213,0.4213,0.4212,0.421,0.421,0.4209,0.421,0.4209,0.4208,0.4209,0.4203,0.4205,0.4204,0.4202,0.4197,0.4197,0.4197,0.4196,0.4195,0.4195,0,0,0,0,0,0,0.4214,0.4213,0.4213,0.4212,0.4211,0.421,0.4209,0.4209,0.4208,0.4208,0.4207,0.4207,0.4204,0.4203,0.4205,0.4199,0.42,0.42,0.42,0.4199,0.4199,0.4199,0.4205,0,0,0,0,0,0.4213,0.4213,0.4212,0.4211,0.421,0.421,0.4209,0.4209,0.4207,0.4207,0.4206,0.4204,0.4202,0.42,0.4198,0.4195,0.4194,0.4193,0.4193,0.4193,0.4192,0.4189,0.4188,0.4196,0.4196,0.4196,0,0,0.4213,0.4213,0.4212,0.4211,0.421,0.4208,0.4209,0.4208,0.4206,0.4207,0.4204,0.4203,0.4201,0.4197,0.4196,0.4196,0.419,0.4192,0.4192,0.4192,0.4188,0.4188,0.4187,0.4195,0.4196,0.4196,0,0,0.4212,0.4212,0.421,0.4209,0.4208,0.4207,0.4207,0.4205,0.4204,0.4202,0.4201,0.4199,0.4196,0.4194,0.4192,0.4188,0.4188,0.4188,0.4185,0.4182,0.4181,0.4181,0.4178,0.4178,0.4187,0.4187,0.4187,0,0.4211,0.4209,0.4209,0.4208,0.4206,0.4206,0.4204,0.4203,0.4201,0.42,0.4201,0.4195,0.4194,0.4189,0.4188,0.4187,0.4186,0.4188,0.4182,0.4181,0.4181,0.4178,0.4177,0.4187,0.4187,0.4187,0.4187,0,0.4208,0.4207,0.4206,0.4204,0.4202,0.42,0.4199,0.4198,0.4197,0.4196,0.4192,0.419,0.4187,0.4186,0.4186,0.4181,0.4181,0.4182,0.4183,0.418,0.4177,0.4176,0.4187,0.4187,0.4187,0.4187,0,0,0.4208,0.4205,0.4204,0.4202,0.42,0.4199,0.4196,0.4193,0.4191,0.4189,0.4186,0.4183,0.4183,0.4181,0.418,0.4177,0.4172,0.4178,0.4178,0.4176,0.4165,0.4165,0.4164,0.4172,0.4172,0.4172,0.4165,0,0.4205,0.4201,0.42,0.4196,0.4194,0.4193,0.4191,0.4189,0.4187,0.4184,0.4182,0.4179,0.418,0.4179,0.4176,0.4174,0.417,0.4174,0.4168,0.4168,0.4169,0.4163,0.4162,0.4156,0.4164,0.4164,0.4164,0,0.4203,0.42,0.4196,0.4193,0.4192,0.419,0.4186,0.4184,0.418,0.4179,0.4176,0.4176,0.4171,0.4173,0.4167,0.4169,0.4167,0.4165,0.4165,0.4164,0.4166,0.4161,0.4154,0.4153,0.4163,0.4163,0.4163,0,0.4201,0.4197,0.4194,0.4192,0.4189,0.4187,0.4185,0.4182,0.418,0.4176,0.4174,0.417,0.4168,0.4165,0.4162,0.4164,0.4155,0.4157,0.4153,0.4153,0.4152,0.4152,0.4144,0.4151,0.4151,0.4151,0.4151,0,0.4198,0.4196,0.4193,0.4191,0.4187,0.4185,0.4181,0.418,0.4176,0.4173,0.4172,0.4169,0.4166,0.4162,0.416,0.4154,0.4153,0.4151,0.4151,0.4151,0.4151,0.4149,0.4149,0.4151,0.4151,0.4151,0.4151,0,0.4197,0.4195,0.4191,0.4187,0.4186,0.4183,0.418,0.4177,0.4175,0.417,0.4169,0.4166,0.4161,0.4158,0.4152,0.415,0.4143,0.4143,0.4144,0.4144,0.414,0.414,0.413,0.4128,0.4137,0.4137,0.4137,0,0.4195,0.4193,0.4188,0.4186,0.4184,0.4181,0.4178,0.4176,0.4173,0.4168,0.4166,0.4161,0.4156,0.4148,0.4144,0.4139,0.4138,0.4135,0.4138,0.4138,0.4137,0.4137,0.4136,0.4135,0.4135,0.4134,0.4134,0,0.4192,0.419,0.4187,0.4183,0.418,0.4177,0.4173,0.4171,0.4168,0.4165,0.4159,0.4156,0.4149,0.4144,0.4138,0.4135,0.4133,0.4134,0.4132,0.4132,0.4133,0.4131,0.4142,0.4134,0.4134,0.4134,0.4134,0.4134,0.4189,0.4187,0.4183,0.4179,0.4176,0.4172,0.4169,0.4166,0.4162,0.4156,0.4155,0.4149,0.4144,0.4136,0.4132,0.4127,0.4128,0.4126,0.4125,0.4125,0.4124,0.4134,0.4126,0.4126,0.4126,0.4126,0.4126,0,0.4185,0.4182,0.4179,0.4174,0.417,0.4169,0.4165,0.4161,0.4156,0.4152,0.4148,0.4141,0.4135,0.413,0.4124,0.412,0.4119,0.4118,0.4118,0.4117,0.4125,0.4126,0.4119,0.4119,0.4119,0.4119,0.4119,0.4119,0.4183,0.4178,0.4176,0.4169,0.4166,0.416,0.4157,0.4154,0.415,0.4142,0.4137,0.4134,0.4129,0.4122,0.4116,0.4115,0.4112,0.4111,0.411,0.4116,0.4117,0.4118,0.4119,0.4111,0.4111,0.4103,0.4103,0.4103]},{"header":{"parameterUnit":"m.s-1","parameterCategory":1,"la1":30.2991,"la2":30.254,"lo1":-89.0895,"lo2":-89.0444,"dy":0.0017,"dx":0.0017,"nx":28,"ny":28,"refTime":"2024-04-22T21:00:00:Z","depth":0,"parameterNumber":3,"parameterNumberName":"V-component_of_WINDS"},"data":[0,0,0,0,0,0,0,0,0,0,0,0,0,0,0,0,0,0,0,0,0,0,0,0,0,0,0,0,0,0,0,0,0,0,0,0,0,0,0,0,0,0,0,0,0,0,0,0,0,0,0,0,0,0,0,0,0,0,4.0548,4.0548,0,4.0564,4.0564,4.0564,4.0491,4.0489,4.0487,4.0485,4.0499,4.0502,4.0504,0,0,0,0,0,0,0,0,0,0,0,0,0,4.0453,4.0455,4.0548,4.0549,4.0549,4.0564,4.0564,4.0564,4.0491,4.0489,4.0486,4.0484,4.0499,4.0501,4.0504,0,0,0,0,0,0,0,0,0,0,0,0,0,4.0484,4.0455,4.0548,4.0514,4.0511,4.0564,4.0564,4.0564,4.0492,4.0489,4.0486,4.0483,4.0498,4.0501,4.0505,4.059,0,0,4.0516,4.0517,0,0,0,0,0,0,0,0,4.0482,4.0487,4.0519,4.0517,4.0514,4.0522,4.0536,4.0573,4.0493,4.0499,4.0485,4.0481,4.051,4.0512,4.0522,4.0591,4.0592,4.0516,4.0518,4.052,4.0521,0,0,0,0,0,0,0,4.048,4.0486,4.0554,4.052,4.0516,4.0497,4.0498,4.0542,4.0522,4.0498,4.0493,4.0496,4.0507,4.0519,4.0522,4.0592,4.0516,4.0519,4.0521,4.0523,4.0728,4.0731,0,0,0,0,0,0,4.0483,4.0485,4.0554,4.0555,4.049,4.0501,4.0502,4.0523,4.0521,4.0518,4.0499,4.0493,4.0514,4.0518,4.0522,4.0619,4.052,4.0523,4.0525,4.0725,4.0729,4.0732,0,0,0,0,0,0,4.0481,4.049,4.0553,4.0518,4.0525,4.0507,4.053,4.0525,4.0536,4.0522,4.0517,4.0514,4.0512,4.0517,4.0573,4.0618,4.0524,4.0528,4.0721,4.0726,4.0731,4.0815,0,0,0,0,0,0,4.0479,4.0489,4.0523,4.052,4.0527,4.0605,4.0533,4.0527,4.0542,4.0534,4.0535,4.0532,4.051,4.0568,4.0577,4.0621,4.053,4.0717,4.0723,4.0729,4.0808,4.0823,4.0835,0,0,0,0,0,4.0475,4.0546,4.0525,4.0533,4.0568,4.0608,4.0612,4.0586,4.0546,4.0578,4.0569,4.0532,4.0613,4.0574,4.0583,4.063,4.0714,4.0721,4.0728,4.0802,4.082,4.0834,0,0,0,0,0,0,4.0555,4.0545,4.0521,4.0594,4.0602,4.0596,4.0636,4.0605,4.0625,4.0617,4.0583,4.0583,4.0644,4.0643,4.0601,4.0711,4.0656,4.0666,4.0709,4.0726,4.0739,4.0736,4.0533,0,0,0,0,0,4.0581,4.0615,4.0604,4.0669,4.0675,4.0655,4.0671,4.065,4.0657,4.066,4.0655,4.0663,4.0689,4.0708,4.0732,4.0809,4.0806,4.0845,4.0858,4.0869,4.0877,4.0914,4.093,4.0757,4.0757,4.0757,0,0,4.0635,4.0634,4.0657,4.0685,4.0689,4.0723,4.0658,4.0698,4.0722,4.0666,4.0717,4.0714,4.0721,4.0787,4.0815,4.0787,4.0925,4.0879,4.0888,4.0889,4.0923,4.094,4.0954,4.0762,4.0761,4.076,0,0,4.075,4.0754,4.0807,4.0812,4.0819,4.0805,4.0817,4.0815,4.081,4.0862,4.082,4.0848,4.0896,4.0901,4.091,4.1026,4.0991,4.1035,4.1103,4.1139,4.1153,4.1165,4.1202,4.1217,4.1043,4.1043,4.1044,0,4.0816,4.0866,4.0838,4.0879,4.0891,4.0842,4.0893,4.09,4.0915,4.0923,4.0892,4.0949,4.0951,4.1015,4.1043,4.1053,4.1065,4.1033,4.1153,4.1165,4.1175,4.1211,4.1226,4.1048,4.1048,4.1047,4.1047,0,4.0945,4.0981,4.1022,4.1036,4.1053,4.11,4.1077,4.1098,4.1075,4.1064,4.1115,4.1115,4.1137,4.1151,4.113,4.1212,4.1194,4.1159,4.1103,4.1197,4.123,4.1244,4.1056,4.1054,4.1052,4.1051,0,0,4.111,4.1107,4.1122,4.1126,4.113,4.1156,4.12,4.1221,4.1237,4.1249,4.1283,4.1324,4.1291,4.1301,4.128,4.1312,4.1399,4.1272,4.1272,4.1293,4.1486,4.1511,4.1527,4.1378,4.138,4.1382,4.1485,0,4.122,4.1294,4.1268,4.1343,4.1373,4.1326,4.1364,4.1369,4.136,4.1384,4.1373,4.1401,4.1357,4.1362,4.1393,4.1382,4.1437,4.1375,4.1406,4.1408,4.1403,4.1545,4.1571,4.1668,4.1498,4.15,4.1502,0,4.1358,4.1373,4.1451,4.1446,4.1458,4.1492,4.1507,4.1532,4.1536,4.1527,4.1538,4.1509,4.155,4.1496,4.155,4.1508,4.152,4.1517,4.152,4.1519,4.1458,4.1545,4.1698,4.1712,4.1522,4.152,4.1519,0,4.1466,4.1507,4.1557,4.1563,4.156,4.1584,4.1584,4.1585,4.1599,4.1613,4.162,4.164,4.1649,4.1664,4.1641,4.1604,4.1697,4.1642,4.1689,4.1689,4.1708,4.1707,4.1862,4.1721,4.1721,4.1721,4.1721,0,4.1589,4.1638,4.1605,4.1636,4.1688,4.1658,4.171,4.1705,4.1706,4.1734,4.1696,4.1723,4.1691,4.1715,4.1697,4.1743,4.1749,4.1741,4.1735,4.1743,4.1743,4.1747,4.1739,4.1725,4.1724,4.1723,4.1722,0,4.1718,4.1699,4.175,4.1742,4.1741,4.1779,4.1772,4.1799,4.1787,4.1823,4.1829,4.181,4.1836,4.1814,4.184,4.1828,4.1888,4.1874,4.1886,4.1881,4.1927,4.1922,4.2089,4.2108,4.1958,4.1959,4.1961,0,4.1796,4.1832,4.1827,4.1843,4.1844,4.1871,4.1884,4.1856,4.187,4.1877,4.1903,4.1926,4.1941,4.1985,4.1972,4.1991,4.1975,4.2033,4.1978,4.1983,4.1972,4.1969,4.1971,4.2043,4.2044,4.2046,4.2047,0,4.1936,4.1924,4.1944,4.1961,4.1977,4.1989,4.1997,4.2012,4.1983,4.2002,4.2027,4.2039,4.2064,4.2086,4.2101,4.2099,4.2068,4.2065,4.2076,4.2082,4.2086,4.2081,4.1912,4.206,4.2059,4.2058,4.2057,4.2057,4.204,4.2068,4.2068,4.2091,4.2094,4.2102,4.2127,4.2117,4.2138,4.2155,4.2138,4.2168,4.2169,4.2185,4.2187,4.221,4.2186,4.2203,4.2207,4.2211,4.2216,4.2086,4.2213,4.2212,4.2212,4.2212,4.2211,0,4.2174,4.2172,4.2193,4.2205,4.2223,4.2192,4.22,4.2216,4.2243,4.2247,4.2263,4.2291,4.2312,4.2301,4.2319,4.2338,4.2324,4.2344,4.234,4.234,4.2238,4.2225,4.2355,4.2355,4.2355,4.2355,4.2354,4.2354,4.2246,4.2291,4.2279,4.2325,4.2322,4.235,4.2356,4.2363,4.2366,4.2399,4.2415,4.2408,4.2406,4.2422,4.2439,4.2436,4.2443,4.2467,4.2458,4.2362,4.2347,4.2334,4.2321,4.2469,4.2469,4.2557,4.2558,4.2559]}]]